Terminal Aerodrome Forecast
Issued by NWS Charleston, WV

Current Version | Previous Version | Graphics & Text | Print | Product List | Glossary On
Versions: 1 2 3 4 5 6 7 8 9 10 11 12 13 14 15 16 17 18 19 20 21 22 23 24 25 26 27 28 29 30 31
000
FTUS41 KRLX 190300 AAB
TAFEKN
TAF AMD
KEKN 190308Z 1903/1924 24010G19KT P6SM BKN030
     FM191100 VRB05KT P6SM SCT025
     FM191700 22008G13KT P6SM BKN070=

USA.gov is the U.S. government's official web portal to all federal, state and local government web resources and services.